MED324 LEZL-LPPT

Flight info

Callsign MED324
Flight time 0h 39m
Altitude 21000
Route SANTA UM744 ROSAL EXONA UPULO
Aircraft A321/M-SDE3FGHIRWY/LB1

Departure

Time 2026-04-28 12:13
Airport Seville Airport (LEZL)

Arrival

Time 2026-04-28 12:52
Airport Lisbon Humberto Delgado Airport (LPPT)
Time Latitude Longitude Altitude Speed Heading
2026-04-28 12:12 37.41800 -5.87477 120 ft 0 kts 270°
2026-04-28 12:13 37.41799 -5.87785 120 ft 87 kts 270°
2026-04-28 12:13 37.41818 -5.89062 321 ft 193 kts 275°
2026-04-28 12:13 37.42342 -5.90939 970 ft 252 kts 298°
2026-04-28 12:13 37.43394 -5.92705 1508 ft 261 kts 310°
2026-04-28 12:14 37.44711 -5.94467 2043 ft 275 kts 314°
2026-04-28 12:14 37.46050 -5.96200 2546 ft 280 kts 314°
2026-04-28 12:14 37.47434 -5.98050 3066 ft 290 kts 313°
2026-04-28 12:14 37.48784 -5.99951 3569 ft 296 kts 311°
2026-04-28 12:15 37.50141 -6.01963 4080 ft 300 kts 310°
2026-04-28 12:15 37.51463 -6.04004 4584 ft 302 kts 309°
2026-04-28 12:15 37.52772 -6.06088 5088 ft 303 kts 308°
2026-04-28 12:15 37.54078 -6.08212 5596 ft 303 kts 307°
2026-04-28 12:16 37.55370 -6.10344 6102 ft 303 kts 306°
2026-04-28 12:16 37.56642 -6.12462 6603 ft 303 kts 305°
2026-04-28 12:16 37.57912 -6.14598 7105 ft 304 kts 304°
2026-04-28 12:16 37.59183 -6.16753 7610 ft 305 kts 304°
2026-04-28 12:17 37.60449 -6.18911 8111 ft 306 kts 304°
2026-04-28 12:17 37.61730 -6.21096 8617 ft 308 kts 304°
2026-04-28 12:17 37.62999 -6.23263 9115 ft 310 kts 304°
2026-04-28 12:17 37.64292 -6.25473 9619 ft 312 kts 304°
2026-04-28 12:18 37.65543 -6.27762 10127 ft 314 kts 302°
2026-04-28 12:18 37.66725 -6.30083 10628 ft 316 kts 300°
2026-04-28 12:18 37.67893 -6.32494 11138 ft 318 kts 299°
2026-04-28 12:18 37.69019 -6.34891 11637 ft 320 kts 298°
2026-04-28 12:19 37.70143 -6.37337 12141 ft 322 kts 298°
2026-04-28 12:19 37.71267 -6.39814 12645 ft 324 kts 298°
2026-04-28 12:19 37.72377 -6.42285 13144 ft 326 kts 297°
2026-04-28 12:19 37.73503 -6.44809 13649 ft 329 kts 297°
2026-04-28 12:20 37.74642 -6.47368 14157 ft 331 kts 297°
2026-04-28 12:20 37.75765 -6.49901 14655 ft 334 kts 297°
2026-04-28 12:20 37.76903 -6.52471 15157 ft 336 kts 297°
2026-04-28 12:20 37.78049 -6.55064 15660 ft 339 kts 297°
2026-04-28 12:21 37.79211 -6.57694 16166 ft 341 kts 297°
2026-04-28 12:21 37.80384 -6.60353 16673 ft 344 kts 297°
2026-04-28 12:21 37.81548 -6.62995 17173 ft 346 kts 297°
2026-04-28 12:21 37.82711 -6.65635 17670 ft 349 kts 297°
2026-04-28 12:22 37.83538 -6.67514 18020 ft 350 kts 297°
2026-04-28 12:22 37.84730 -6.70225 18524 ft 353 kts 297°
2026-04-28 12:22 37.85926 -6.72948 19025 ft 355 kts 297°
2026-04-28 12:22 37.87123 -6.75675 19524 ft 358 kts 297°
2026-04-28 12:23 37.88355 -6.78485 19930 ft 364 kts 297°
2026-04-28 12:23 37.89593 -6.81310 20052 ft 368 kts 297°
2026-04-28 12:23 37.90850 -6.84182 20098 ft 369 kts 297°
2026-04-28 12:23 37.92111 -6.87064 20101 ft 370 kts 297°
2026-04-28 12:24 37.93342 -6.89879 20101 ft 370 kts 297°
2026-04-28 12:24 37.94605 -6.92769 20100 ft 370 kts 297°
2026-04-28 12:24 37.95840 -6.95601 20100 ft 370 kts 297°
2026-04-28 12:24 37.97130 -6.98559 20100 ft 370 kts 297°
2026-04-28 12:25 37.98397 -7.01470 20100 ft 370 kts 297°
2026-04-28 12:25 37.99635 -7.04317 20100 ft 370 kts 297°
2026-04-28 12:25 38.00998 -7.07086 20092 ft 372 kts 305°
2026-04-28 12:25 38.02675 -7.09190 20103 ft 377 kts 317°
2026-04-28 12:26 38.04842 -7.11135 20106 ft 380 kts 324°
2026-04-28 12:26 38.07171 -7.12801 20104 ft 382 kts 329°
2026-04-28 12:26 38.09555 -7.14274 20102 ft 382 kts 332°
2026-04-28 12:26 38.11998 -7.15655 20101 ft 382 kts 333°
2026-04-28 12:27 38.14442 -7.16967 20100 ft 382 kts 334°
2026-04-28 12:27 38.16904 -7.18254 20100 ft 382 kts 334°
2026-04-28 12:27 38.19347 -7.19517 20100 ft 382 kts 334°
2026-04-28 12:27 38.21817 -7.20791 20100 ft 382 kts 334°
2026-04-28 12:28 38.24310 -7.22079 20100 ft 382 kts 334°
2026-04-28 12:28 38.26792 -7.23321 20096 ft 384 kts 337°
2026-04-28 12:28 38.29365 -7.24322 20099 ft 383 kts 337°
2026-04-28 12:28 38.31675 -7.26003 20103 ft 378 kts 321°
2026-04-28 12:29 38.35485 -7.30799 20105 ft 375 kts 309°
2026-04-28 12:29 38.37182 -7.33386 20102 ft 374 kts 307°
2026-04-28 12:29 38.38785 -7.36017 20096 ft 372 kts 303°
2026-04-28 12:30 38.40007 -7.38916 20103 ft 371 kts 293°
2026-04-28 12:30 38.40921 -7.41997 20104 ft 370 kts 287°
2026-04-28 12:30 38.41646 -7.45193 20102 ft 369 kts 284°
2026-04-28 12:30 38.42210 -7.48446 20102 ft 369 kts 280°
2026-04-28 12:31 38.42516 -7.50604 20101 ft 368 kts 279°
2026-04-28 12:31 38.42684 -7.51896 20101 ft 368 kts 278°
2026-04-28 12:31 38.42951 -7.54080 20101 ft 368 kts 278°
2026-04-28 12:31 38.43326 -7.57335 20100 ft 368 kts 277°
2026-04-28 12:32 38.43685 -7.60586 20100 ft 368 kts 277°
2026-04-28 12:32 38.44041 -7.63867 20100 ft 367 kts 277°
2026-04-28 12:32 38.44371 -7.67121 20100 ft 367 kts 276°
2026-04-28 12:32 38.44657 -7.70342 20100 ft 367 kts 276°
2026-04-28 12:33 38.44927 -7.73628 20100 ft 367 kts 275°
2026-04-28 12:33 38.45182 -7.76860 20100 ft 367 kts 275°
2026-04-28 12:33 38.45434 -7.80120 20100 ft 367 kts 275°
2026-04-28 12:33 38.45680 -7.83329 20100 ft 367 kts 275°
2026-04-28 12:34 38.45935 -7.86686 20100 ft 367 kts 275°
2026-04-28 12:34 38.46180 -7.89917 20100 ft 367 kts 275°
2026-04-28 12:34 38.46429 -7.93217 20100 ft 367 kts 275°
2026-04-28 12:34 38.46674 -7.96469 20100 ft 367 kts 275°
2026-04-28 12:35 38.46921 -7.99763 20100 ft 367 kts 275°
2026-04-28 12:35 38.47165 -8.03013 20100 ft 367 kts 275°
2026-04-28 12:35 38.47411 -8.06296 20100 ft 367 kts 275°
2026-04-28 12:35 38.47654 -8.09548 20100 ft 367 kts 275°
2026-04-28 12:36 38.47899 -8.12836 20100 ft 367 kts 275°
2026-04-28 12:36 38.48143 -8.16110 20100 ft 367 kts 275°
2026-04-28 12:36 38.48387 -8.19397 20100 ft 367 kts 275°
2026-04-28 12:36 38.48628 -8.22656 20100 ft 367 kts 275°
2026-04-28 12:37 38.48873 -8.25976 20100 ft 367 kts 275°
2026-04-28 12:37 38.49095 -8.29237 20100 ft 367 kts 274°
2026-04-28 12:37 38.49299 -8.32468 20100 ft 367 kts 274°
2026-04-28 12:37 38.49500 -8.35773 20100 ft 367 kts 274°
2026-04-28 12:38 38.49688 -8.38924 20094 ft 352 kts 274°
2026-04-28 12:38 38.49866 -8.41937 20089 ft 331 kts 274°
2026-04-28 12:38 38.50036 -8.44821 20090 ft 315 kts 274°
2026-04-28 12:38 38.50198 -8.47567 20092 ft 306 kts 274°
2026-04-28 12:39 38.50357 -8.50279 20039 ft 303 kts 274°
2026-04-28 12:39 38.50516 -8.52979 19631 ft 303 kts 274°
2026-04-28 12:39 38.50672 -8.55645 19031 ft 295 kts 274°
2026-04-28 12:39 38.50824 -8.58259 18428 ft 292 kts 274°
2026-04-28 12:40 38.50973 -8.60811 17833 ft 290 kts 274°
2026-04-28 12:40 38.51123 -8.63391 17229 ft 288 kts 274°
2026-04-28 12:40 38.51270 -8.65921 16631 ft 286 kts 274°
2026-04-28 12:40 38.51417 -8.68453 16027 ft 283 kts 274°
2026-04-28 12:41 38.51514 -8.70137 15623 ft 282 kts 274°
2026-04-28 12:41 38.51658 -8.72634 15018 ft 279 kts 274°
2026-04-28 12:41 38.51800 -8.75097 14417 ft 277 kts 274°
2026-04-28 12:41 38.51938 -8.77511 13822 ft 274 kts 274°
2026-04-28 12:42 38.52077 -8.79937 13219 ft 272 kts 274°
2026-04-28 12:42 38.52216 -8.82357 12612 ft 269 kts 274°
2026-04-28 12:42 38.52351 -8.84726 12012 ft 267 kts 274°
2026-04-28 12:42 38.52485 -8.87072 11412 ft 264 kts 274°
2026-04-28 12:43 38.52617 -8.89391 10814 ft 262 kts 274°
2026-04-28 12:43 38.52749 -8.91725 10198 ft 255 kts 274°
2026-04-28 12:43 38.52877 -8.93982 9595 ft 253 kts 274°
2026-04-28 12:43 38.53003 -8.96205 8998 ft 252 kts 274°
2026-04-28 12:44 38.53129 -8.98436 8396 ft 250 kts 274°
2026-04-28 12:44 38.53254 -9.00658 7786 ft 243 kts 274°
2026-04-28 12:44 38.53372 -9.02736 7176 ft 228 kts 274°
2026-04-28 12:44 38.53483 -9.04702 6565 ft 216 kts 274°
2026-04-28 12:45 38.53586 -9.06607 5949 ft 209 kts 274°
2026-04-28 12:45 38.53662 -9.08463 5336 ft 206 kts 274°
2026-04-28 12:45 38.53662 -9.10334 4719 ft 206 kts 271°
2026-04-28 12:45 38.53606 -9.12173 4170 ft 205 kts 268°
2026-04-28 12:46 38.53489 -9.13934 4149 ft 201 kts 266°
2026-04-28 12:46 38.53357 -9.15733 4131 ft 203 kts 265°
2026-04-28 12:46 38.53225 -9.17527 4117 ft 200 kts 265°
2026-04-28 12:46 38.53239 -9.19301 4079 ft 195 kts 283°
2026-04-28 12:47 38.53902 -9.20733 4115 ft 192 kts 315°
2026-04-28 12:47 38.55062 -9.21649 4158 ft 194 kts 334°
2026-04-28 12:47 38.56310 -9.22314 4126 ft 193 kts 339°
2026-04-28 12:47 38.57576 -9.22927 4117 ft 190 kts 339°
2026-04-28 12:48 38.58859 -9.23537 4117 ft 188 kts 340°
2026-04-28 12:48 38.60126 -9.24138 4119 ft 188 kts 340°
2026-04-28 12:48 38.61351 -9.24687 4113 ft 188 kts 345°
2026-04-28 12:48 38.62657 -9.24605 4045 ft 191 kts 15°
2026-04-28 12:49 38.63782 -9.23636 3678 ft 200 kts 47°
2026-04-28 12:49 38.64425 -9.22106 3341 ft 193 kts 68°
2026-04-28 12:49 38.64848 -9.20481 2970 ft 190 kts 71°
2026-04-28 12:49 38.65260 -9.19475 2631 ft 192 kts 54°
2026-04-28 12:50 38.66758 -9.18441 2278 ft 177 kts
2026-04-28 12:50 38.67950 -9.18489 2186 ft 167 kts 355°
2026-04-28 12:50 38.68725 -9.18526 2025 ft 167 kts
2026-04-28 12:50 38.69853 -9.18222 1796 ft 161 kts 19°
2026-04-28 12:51 38.70835 -9.17617 1614 ft 158 kts 27°
2026-04-28 12:51 38.71807 -9.16975 1405 ft 157 kts 26°
2026-04-28 12:51 38.72809 -9.16423 1199 ft 155 kts 22°
2026-04-28 12:51 38.73794 -9.15920 1000 ft 152 kts 22°
2026-04-28 12:52 38.74791 -9.15388 786 ft 153 kts 23°
2026-04-28 12:52 38.75771 -9.14856 589 ft 151 kts 23°
2026-04-28 12:52 38.76750 -9.14332 397 ft 150 kts 22°
2026-04-28 12:52 38.77431 -9.13969 383 ft 45 kts 22°
2026-04-28 12:53 38.77510 -9.13927 383 ft 9 kts 22°
2026-04-28 12:53 38.77590 -9.13885 383 ft 16 kts 22°
2026-04-28 12:53 38.77744 -9.13802 383 ft 28 kts 22°
2026-04-28 12:53 38.77940 -9.13699 383 ft 33 kts 22°
2026-04-28 12:54 38.78173 -9.13575 383 ft 38 kts 22°
2026-04-28 12:54 38.78394 -9.13458 383 ft 34 kts 22°
2026-04-28 12:54 38.78543 -9.13368 383 ft 17 kts 52°
2026-04-28 12:54 38.78509 -9.13241 383 ft 18 kts 149°
2026-04-28 12:55 38.78437 -9.13234 383 ft 10 kts 193°
2026-04-28 12:55 38.78356 -9.13277 383 ft 15 kts 205°
2026-04-28 12:55 38.78244 -9.13337 383 ft 20 kts 201°
2026-04-28 12:55 38.78099 -9.13406 383 ft 25 kts 200°